TimeEDT,TemperatureF,Dew PointF,Humidity,Sea Level PressureIn,VisibilityMPH,Wind Direction,Wind SpeedMPH,Gust SpeedMPH,PrecipitationIn,Events,Conditions,WindDirDegrees,DateUTC
12:53 AM,53.1,45.0,74,29.96,10.0,WSW,11.5,-,N/A,Thunderstorm,Thunderstorm,250,2013-04-09 04:53:00
1:53 AM,46.9,42.1,83,30.00,10.0,West,10.4,-,N/A,,Overcast,280,2013-04-09 05:53:00
2:53 AM,44.1,39.9,85,30.03,10.0,WNW,3.5,-,N/A,,Mostly Cloudy,300,2013-04-09 06:53:00
3:53 AM,42.1,39.0,89,30.04,10.0,SW,3.5,-,N/A,,Scattered Clouds,220,2013-04-09 07:53:00
4:53 AM,42.1,39.9,92,30.06,9.0,Calm,Calm,-,N/A,,Mostly Cloudy,0,2013-04-09 08:53:00
5:53 AM,44.1,41.0,89,30.08,7.0,Calm,Calm,-,N/A,,Overcast,0,2013-04-09 09:53:00
6:19 AM,42.8,41.0,93,30.08,6.0,Calm,Calm,-,N/A,,Mostly Cloudy,0,2013-04-09 10:19:00
6:53 AM,42.1,39.9,92,30.10,5.0,North,3.5,-,N/A,,Scattered Clouds,10,2013-04-09 10:53:00
7:53 AM,43.0,42.1,97,30.11,4.0,NE,3.5,-,N/A,,Scattered Clouds,50,2013-04-09 11:53:00
8:02 AM,44.6,42.8,93,30.10,4.0,NE,6.9,-,N/A,,Mostly Cloudy,50,2013-04-09 12:02:00
8:17 AM,44.6,42.8,93,30.10,4.0,NE,4.6,-,N/A,,Scattered Clouds,50,2013-04-09 12:17:00
8:53 AM,44.1,41.0,89,30.09,3.0,NE,8.1,-,N/A,,Partly Cloudy,40,2013-04-09 12:53:00
9:53 AM,44.1,41.0,89,30.08,4.0,NE,8.1,-,N/A,,Clear,40,2013-04-09 13:53:00
10:53 AM,45.0,41.0,86,30.07,4.0,NNE,8.1,-,N/A,,Clear,30,2013-04-09 14:53:00
11:53 AM,45.0,41.0,86,30.06,-9999.0,NE,10.4,-,N/A,,Clear,40,2013-04-09 15:53:00
12:53 PM,45.0,41.0,86,30.03,6.0,NE,12.7,-,N/A,,Scattered Clouds,40,2013-04-09 16:53:00
1:53 PM,45.0,41.0,86,30.00,6.0,NE,12.7,-,N/A,,Mostly Cloudy,40,2013-04-09 17:53:00
2:53 PM,46.0,41.0,83,29.97,10.0,NE,12.7,-,N/A,,Partly Cloudy,40,2013-04-09 18:53:00
3:53 PM,44.1,39.9,85,29.92,10.0,NE,12.7,-,N/A,,Mostly Cloudy,40,2013-04-09 19:53:00
4:53 PM,50.0,43.0,77,29.87,10.0,NE,5.8,-,N/A,,Mostly Cloudy,50,2013-04-09 20:53:00
5:53 PM,52.0,45.0,77,29.85,10.0,NNW,4.6,-,N/A,,Mostly Cloudy,330,2013-04-09 21:53:00
6:53 PM,48.0,43.0,83,29.84,10.0,Calm,Calm,-,N/A,,Overcast,0,2013-04-09 22:53:00
7:53 PM,55.9,45.0,67,29.84,10.0,NNW,11.5,23.0,N/A,,Overcast,340,2013-04-09 23:53:00
8:53 PM,46.0,41.0,83,29.88,10.0,North,5.8,-,N/A,,Overcast,360,2013-04-10 00:53:00
9:53 PM,42.1,39.0,89,29.92,10.0,NE,6.9,-,N/A,,Overcast,50,2013-04-10 01:53:00
10:53 PM,42.1,39.0,89,29.93,9.0,West,3.5,-,N/A,,Mostly Cloudy,280,2013-04-10 02:53:00
11:53 PM,43.0,39.0,86,29.91,10.0,Calm,Calm,-,N/A,,Overcast,0,2013-04-10 03:53:00